Location: Morlupo
(42.1333°N, 12.5000°E)
Time: 13:14:22
(UTC+00:00)

Cosmos 1536 Rocket - Visible Passes

Search period start: 16 January 2021 00:00
Search period end: 26 January 2021 00:00
Orbit: 605 x 632 km, 82.5° (Epoch: 15 January)

Date Brightness Start Highest point End Pass type
(mag) Time Alt. Az. Time Alt. Az. Time Alt. Az.
16 Jan 3.7 16:46:01 10° S 16:50:22 79° W 16:54:47 10° N visible
17 Jan 4.9 17:03:34 10° SSW 17:07:42 41° WNW 17:11:53 10° N visible
18 Jan 6.0 17:21:38 10° SW 17:25:07 23° WNW 17:28:40 10° NNW visible
19 Jan 6.5 17:40:34 10° W 17:42:40 13° WNW 17:44:47 10° NW visible
21 Jan 5.1 16:34:51 10° SSW 16:38:58 39° WNW 16:43:09 10° N visible
22 Jan 6.1 16:52:58 10° SW 16:56:24 22° WNW 16:59:54 10° NNW visible
23 Jan 6.5 17:12:00 10° W 17:13:57 13° WNW 17:15:56 10° NW visible
